TimeCST,TemperatureF,Dew PointF,Humidity,Sea Level PressureIn,VisibilityMPH,Wind Direction,Wind SpeedMPH,Gust SpeedMPH,PrecipitationIn,Events,Conditions,WindDirDegrees,DateUTC
12:40 AM,64.4,64.4,100,30.02,7.0,NE,5.8,-,N/A,,Scattered Clouds,50,2012-11-20 06:40:00
1:46 AM,68.0,68.0,100,30.00,7.0,Calm,Calm,-,N/A,,Scattered Clouds,0,2012-11-20 07:46:00
2:45 AM,66.2,66.2,100,30.02,7.0,Calm,Calm,-,N/A,,Scattered Clouds,0,2012-11-20 08:45:00
4:41 AM,66.2,66.2,100,30.01,7.0,North,4.6,-,N/A,,Mostly Cloudy,10,2012-11-20 10:41:00
5:52 AM,68.0,68.0,100,29.98,7.0,Calm,Calm,-,N/A,,Mostly Cloudy,0,2012-11-20 11:52:00
6:48 AM,68.0,68.0,100,30.03,7.0,Calm,Calm,-,N/A,,Mostly Cloudy,0,2012-11-20 12:48:00
7:49 AM,69.8,69.8,100,30.05,6.0,NNE,4.6,-,N/A,,Mostly Cloudy,20,2012-11-20 13:49:00
8:48 AM,69.8,69.8,100,30.11,3.0,Calm,Calm,-,N/A,Rain,Light Rain,0,2012-11-20 14:48:00
9:49 AM,68.0,57.2,68,30.08,3.0,Calm,Calm,-,N/A,Rain,Light Rain,0,2012-11-20 15:49:00
10:41 AM,69.8,68.0,94,30.07,6.0,NW,8.1,-,N/A,,Overcast,320,2012-11-20 16:41:00
11:47 AM,71.6,68.0,88,30.02,7.0,NNW,10.4,-,N/A,,Overcast,330,2012-11-20 17:47:00
12:08 PM,71.6,68.0,88,30.05,3.0,North,6.9,-,N/A,Rain,Light Rain,360,2012-11-20 18:08:00
12:51 PM,69.8,57.2,64,30.01,3.0,NNW,4.6,-,N/A,Rain,Light Rain,330,2012-11-20 18:51:00
1:50 PM,69.8,68.0,94,30.00,7.0,NNW,6.9,-,N/A,,Overcast,330,2012-11-20 19:50:00
2:47 PM,69.8,66.2,88,30.02,7.0,NE,4.6,-,N/A,,Overcast,40,2012-11-20 20:47:00
3:45 PM,71.6,66.2,83,29.99,7.0,NNE,9.2,-,N/A,,Overcast,30,2012-11-20 21:45:00
4:46 PM,71.6,62.6,73,29.99,7.0,NNE,5.8,-,N/A,,Mostly Cloudy,30,2012-11-20 22:46:00
5:50 PM,71.6,60.8,69,29.97,7.0,NNE,6.9,-,N/A,,Mostly Cloudy,30,2012-11-20 23:50:00
6:44 PM,71.6,62.6,73,30.03,7.0,North,6.9,-,N/A,,Mostly Cloudy,10,2012-11-21 00:44:00
7:45 PM,69.8,60.8,73,30.05,7.0,North,10.4,-,N/A,,Mostly Cloudy,360,2012-11-21 01:45:00
8:46 PM,71.6,55.4,57,30.09,7.0,North,6.9,-,N/A,,Scattered Clouds,360,2012-11-21 02:46:00
9:43 PM,69.8,57.2,64,30.07,7.0,North,8.1,-,N/A,,Partly Cloudy,10,2012-11-21 03:43:00
10:41 PM,69.8,55.4,60,30.06,7.0,North,6.9,-,N/A,,Clear,10,2012-11-21 04:41:00
11:47 PM,69.8,55.4,60,30.01,7.0,North,9.2,-,N/A,,Clear,360,2012-11-21 05:47:00